Location: Milton
(43.5183°N, 79.8775°W)
Time: 19:10:09
(UTC+00:00)

SEEDS - Visible Passes

Search period start: 15 April 2024 00:00
Search period end: 25 April 2024 00:00
Orbit: 555 x 565 km, 97.7° (Epoch: 15 April)

Date Brightness Start Highest point End Pass type
(mag) Time Alt. Az. Time Alt. Az. Time Alt. Az.
15 Apr ? 09:08:36 10° NNE 09:12:36 65° ESE 09:16:32 10° S visible
16 Apr ? 09:07:27 10° NNE 09:11:25 63° E 09:15:22 10° S visible
17 Apr ? 09:06:17 10° NNE 09:10:15 60° E 09:14:11 10° S visible
18 Apr ? 09:05:05 10° NNE 09:09:02 58° E 09:12:57 10° S visible
19 Apr ? 09:03:52 10° NNE 09:07:48 56° E 09:11:43 10° S visible
20 Apr ? 09:02:37 10° NNE 09:06:33 54° E 09:10:27 10° S visible
21 Apr ? 09:01:21 10° NNE 09:05:16 52° E 09:09:10 10° S visible
22 Apr ? 09:00:04 10° NNE 09:03:59 50° E 09:07:51 10° S visible
23 Apr ? 08:58:46 10° NNE 09:02:39 48° E 09:06:31 10° S visible
24 Apr ? 08:57:26 10° NNE 09:01:18 47° E 09:05:09 10° S visible
